Temperature
6 6 6 6 5 5 5 5 5 5 4 4 4 4 4 4 4 4 4 4 4 5 5 5 5 5 5 5 5 5 5 5 4 5 5 5 5 5 6 6 6 6 7
6 6 5 5 5 5 5 4 4 4 4 4 4 4 4 4 4 4 4 4 4 4 4 4 4 4 4 4 4 4 4 4 4 4 4 4 5 5 5 5 5 6 6
6 5 5 5 5 4 4 4 4 4 4 3 3 3 3 3 3 3 3 3 3 3 3 3 3 3 3 3 4 4 4 4 3 3 3 4 4 4 4 5 5 5 5
5 5 5 5 4 4 4 4 3 3 3 3 3 3 3 3 2 2 2 2 2 2 2 2 2 3 3 3 3 3 3 3 3 3 3 3 3 3 4 4 4 5 5
5 5 5 4 4 4 4 3 3 3 3 3 2 2 2 2 2 2 2 2 2 2 2 2 2 2 2 2 2 2 2 2 2 2 3 3 3 3 3 3 3 4 4
5 4 4 4 4 3 3 3 3 3 2 2 2 2 2 2 2 1 1 1 1 1 1 1 1 1 1 1 1 2 2 2 2 2 2 2 2 2 2 2 2 2 3
4 4 4 3 3 3 3 3 2 2 2 2 2 2 2 2 1 1 1 1 1 1 1 1 1 1 1 1 1 1 1 1 1 1 1 1 1 1 1 2 2 2 2
4 4 3 3 3 3 2 2 2 2 2 2 1 1 1 1 1 1 1 1 1 1 1 1 1 1 1 1 1 1 1 1 1 1 1 1 1 1 1 1 1 1 1
3 3 3 3 3 2 2 2 2 2 1 1 1 1 1 1 1 1 1 0 0 0 0 0 0 0 0 0 0 0 1 1 1 1 0 0 0 0 0 0 0 0 0
3 3 3 2 2 2 2 2 2 1 1 1 1 1 1 1 0 0 0 -0 0 0 0 0 0 -0 -0 -0 -0 -0 0 0 0 0 0 0 0 -0 -0 -0 -0 -1 -1
3 2 2 2 2 2 2 1 1 1 1 1 1 0 0 0 -0 -0 -0 -0 -0 -0 -0 -0 -0 -0 -0 -1 -1 -1 -1 -1 -0 -0 -0 -0 -0 -0 -1 -1 -1 -1 -2
2 2 2 2 2 1 1 1 1 1 0 0 0 0 0 -0 -0 -0 -1 -1 -1 -1 -1 -1 -1 -1 -1 -1 -1 -1 -1 -1 -1 -1 -1 -1 -1 -1 -1 -1 -2 -2 -2
2 2 2 2 1 1 1 1 1 0 0 -0 -0 -0 -0 -0 -0 -1 -1 -1 -1 -1 -1 -1 -1 -2 -2 -2 -2 -2 -2 -2 -2 -2 -2 -2 -2 -2 -2 -2 -2 -2 -2
1 1 1 1 1 1 1 0 0 -0 -0 -0 -1 -1 -1 -1 -1 -1 -1 -1 -1 -1 -1 -2 -2 -2 -2 -2 -2 -2 -2 -2 -2 -2 -2 -2 -2 -2 -2 -3 -3 -3 -3
1 1 1 1 1 0 0 0 -0 -0 -1 -1 -1 -1 -1 -1 -1 -1 -1 -1 -2 -2 -2 -2 -2 -2 -2 -3 -3 -3 -3 -3 -3 -3 -3 -3 -3 -3 -3 -3 -3 -4 -4
1 1 1 1 1 0 0 -0 -0 -1 -1 -1 -1 -1 -1 -1 -1 -1 -2 -2 -2 -2 -2 -2 -3 -3 -3 -3 -3 -4 -4 -4 -4 -4 -4 -4 -4 -4 -4 -4 -4 -4 -4
0 0 0 0 0 0 -0 -0 -0 -0 -1 -1 -1 -1 -1 -1 -1 -2 -2 -2 -3 -3 -3 -3 -3 -3 -4 -4 -4 -4 -4 -4 -4 -4 -4 -4 -4 -4 -5 -5 -5 -5 -5
0 0 0 -0 -0 -0 -0 -1 -1 -1 -1 -1 -1 -1 -1 -2 -2 -2 -2 -3 -3 -3 -3 -3 -3 -4 -4 -4 -4 -4 -5 -5 -5 -5 -5 -5 -5 -5 -5 -5 -6 -6 -6
0 -0 -0 -0 -0 -1 -1 -1 -1 -1 -1 -1 -2 -2 -2 -2 -2 -2 -3 -3 -3 -3 -4 -4 -4 -4 -4 -5 -5 -5 -5 -5 -5 -6 -6 -6 -6 -6 -6 -6 -6 -6 -6
-0 -0 -0 -1 -1 -1 -1 -1 -2 -2 -2 -2 -2 -2 -2 -3 -3 -3 -3 -3 -4 -4 -4 -4 -4 -4 -5 -5 -5 -5 -5 -6 -6 -6 -6 -6 -6 -7 -7 -7 -7 -7 -7
-0 -1 -1 -1 -1 -1 -2 -2 -2 -2 -2 -2 -2 -3 -3 -3 -3 -3 -4 -4 -4 -4 -4 -5 -5 -5 -5 -5 -5 -6 -6 -6 -6 -6 -7 -7 -7 -7 -7 -7 -7 -7 -7
-1 -1 -1 -1 -1 -2 -2 -2 -2 -2 -3 -3 -3 -3 -3 -3 -4 -4 -4 -4 -4 -4 -5 -5 -5 -5 -5 -6 -6 -6 -6 -6 -6 -7 -7 -7 -7 -7 -7 -8 -8 -8 -8
-1 -2 -2 -2 -2 -2 -2 -3 -3 -3 -3 -3 -3 -4 -4 -4 -4 -4 -4 -5 -5 -5 -5 -5 -5 -5 -6 -6 -6 -6 -6 -6 -7 -7 -7 -7 -7 -8 -8 -8 -8 -8 -8
-2 -2 -2 -2 -2 -3 -3 -3 -3 -3 -4 -4 -4 -4 -4 -4 -4 -5 -5 -5 -5 -5 -5 -5 -5 -6 -6 -6 -6 -6 -7 -7 -7 -7 -7 -7 -8 -8 -8 -8 -9 -9 -9
-2 -2 -3 -3 -3 -3 -3 -3 -4 -4 -4 -4 -4 -4 -5 -5 -5 -5 -5 -5 -5 -6 -6 -6 -6 -6 -6 -6 -6 -7 -7 -7 -7 -7 -8 -8 -8 -8 -8 -9 -9 -9 -9
-3 -3 -3 -3 -3 -3 -4 -4 -4 -4 -4 -4 -5 -5 -5 -5 -5 -6 -6 -6 -6 -6 -6 -6 -6 -6 -6 -7 -7 -7 -7 -7 -7 -8 -8 -8 -8 -8 -9 -9 -9 -9 -9
Wind_Speed
4 4 3 3 3 3 3 4 4 4 4 4 5 5 5 5 4 4 4 3 3 3 3 3 4 3 3 3 2 3 3 4 6 5 3 2 3 3 4 5 6 6 7
5 4 4 4 3 3 4 4 4 4 4 4 4 4 5 5 4 4 4 4 3 3 3 3 4 3 3 3 2 3 3 3 5 6 4 3 3 4 4 4 5 5 6
5 4 4 4 4 4 4 4 4 4 4 4 4 4 5 5 4 4 3 3 3 3 3 3 4 3 4 3 3 3 3 3 3 5 5 3 3 3 4 4 4 4 5
5 5 5 5 5 5 4 4 4 4 4 4 4 5 5 5 4 4 3 3 4 4 4 4 4 4 4 4 4 4 3 3 3 4 4 3 3 3 2 3 4 3 4
5 6 6 6 5 4 4 4 4 4 5 5 5 5 5 4 4 4 3 3 3 4 4 4 5 5 5 5 4 3 3 3 3 4 4 4 3 2 3 3 4 4 4
6 7 6 5 4 4 4 4 4 4 4 4 5 5 5 4 6 5 3 3 3 4 4 5 5 5 6 6 5 5 4 4 4 4 4 5 5 4 3 3 3 4 4
6 6 5 5 5 5 4 4 4 4 4 4 4 4 4 5 6 5 4 2 3 3 4 4 4 4 4 3 4 5 5 6 6 5 6 6 5 4 4 4 4 4 5
6 6 5 5 5 5 4 5 5 4 4 3 4 3 4 5 6 5 4 2 2 3 3 3 3 4 3 3 3 3 3 4 5 4 5 5 5 4 4 4 4 4 4
7 7 6 6 6 5 5 5 4 4 4 3 3 4 4 5 6 6 4 2 2 3 3 3 3 3 5 4 2 3 4 4 4 4 4 4 5 5 4 2 2 3 4
8 8 6 6 6 6 6 5 4 4 4 4 4 4 4 5 6 6 4 2 2 3 3 3 4 4 5 5 3 3 4 4 3 3 3 3 3 3 4 2 3 3 3
7 6 5 6 6 6 5 4 4 4 3 4 4 4 4 5 6 6 5 2 2 2 3 3 3 6 6 6 4 3 5 4 2 2 2 2 2 1 2 2 2 3 4
5 6 6 6 5 4 4 4 4 4 4 4 4 4 4 4 5 5 5 4 3 2 3 3 3 6 6 6 4 4 5 3 1 1 1 2 2 2 2 2 3 3 4
5 6 6 5 5 4 4 5 3 3 3 4 3 4 4 3 4 7 6 6 5 3 3 4 5 5 5 4 4 5 3 1 1 1 2 3 2 2 2 2 3 3 4
6 6 5 5 5 4 4 4 4 4 5 4 4 5 4 3 3 2 2 3 3 3 2 3 4 4 3 4 4 3 1 1 1 1 2 2 2 2 2 2 2 3 3
5 5 5 5 5 4 4 5 5 6 6 6 5 4 4 5 5 5 3 3 2 2 1 1 1 1 2 2 2 2 1 1 1 1 1 2 2 2 3 3 2 3 3
5 5 4 4 4 4 4 4 6 6 8 9 8 6 5 7 6 6 6 6 6 4 2 1 2 2 2 2 2 2 2 1 1 1 1 2 2 2 3 3 2 2 3
6 5 4 4 4 4 4 4 4 4 6 8 9 9 8 7 7 6 6 6 6 5 3 2 3 3 2 2 2 2 2 2 1 1 2 2 2 2 3 3 3 3 4
5 6 5 5 5 5 5 4 4 4 3 3 5 8 8 8 7 6 6 4 3 3 2 3 3 3 2 2 2 2 2 2 1 1 2 2 2 2 3 3 3 3 4
5 4 4 4 4 4 4 4 4 5 4 3 2 3 5 6 6 6 5 3 3 3 3 3 3 3 2 2 2 2 2 2 2 2 2 2 2 2 3 3 3 5 5
5 6 5 4 4 4 4 4 4 4 4 4 4 4 2 2 2 3 3 3 4 4 3 3 3 3 3 2 2 2 2 2 2 2 2 2 2 2 3 4 4 4 4
4 4 6 4 4 5 5 5 5 5 5 5 5 5 6 3 4 4 4 4 4 4 4 4 3 3 3 3 2 3 3 3 2 2 2 2 2 2 3 3 4 4 4
4 4 4 4 4 4 4 4 4 5 5 5 4 4 7 4 3 4 4 4 4 4 3 3 3 3 3 3 3 3 3 3 3 3 3 3 3 3 3 3 3 4 4
4 4 4 4 4 5 5 4 4 4 5 4 4 4 3 4 4 4 4 4 4 3 3 3 4 3 3 4 4 4 4 4 4 4 3 3 3 3 3 3 4 4 5
4 4 4 4 4 4 4 4 4 4 4 4 4 4 4 4 4 4 4 3 3 4 4 4 4 5 5 4 4 5 5 5 5 4 5 4 4 4 3 4 4 5 5
4 4 4 5 5 5 4 4 4 4 4 4 4 4 4 4 4 4 4 4 4 4 4 4 4 5 6 6 6 6 7 7 6 5 5 4 4 4 4 5 5 5 6
4 4 4 4 5 5 5 5 5 5 5 5 4 4 4 4 4 4 4 4 4 4 4 4 5 6 6 6 7 7 8 8 8 7 5 4 4 4 4 4 6 5 6
Wind_Direction
219 216 222 233 239 249 256 264 269 277 285 294 301 305 306 306 304 299 292 288 280 281 280 274 272 268 265 267 264 255 256 248 261 274 270 278 278 285 305 306 303 301 301
217 213 220 227 233 247 258 265 269 274 279 283 290 296 298 299 299 294 290 292 286 284 283 281 282 283 274 270 265 260 259 254 252 269 276 279 274 275 273 279 299 308 306
213 213 222 226 231 245 256 264 267 270 279 284 285 285 287 288 287 284 280 283 279 275 274 273 271 268 271 269 263 262 263 269 258 262 273 270 268 280 285 286 289 287 307
214 215 224 230 231 240 251 259 262 265 271 277 277 276 275 274 274 275 272 274 275 276 270 267 263 255 257 257 262 262 261 262 262 265 271 268 262 273 276 283 296 295 303
217 221 229 231 230 237 248 255 260 264 268 268 272 275 274 271 268 262 261 265 268 277 276 271 265 258 254 255 261 259 259 260 262 262 269 272 263 276 277 276 286 300 300
221 227 229 227 232 238 246 252 260 267 272 271 271 271 272 273 273 273 273 267 271 274 277 275 268 264 262 266 269 269 262 258 261 263 266 268 267 262 266 273 277 295 294
229 232 228 226 231 237 244 249 256 263 271 273 265 260 261 268 274 272 273 271 269 269 277 281 282 277 272 260 273 283 281 276 270 258 259 263 266 259 259 266 272 276 278
233 234 230 225 230 235 237 244 252 261 258 261 264 259 261 268 272 273 277 268 265 266 269 269 274 281 275 269 268 278 279 285 284 266 254 261 269 267 251 260 264 279 281
233 235 232 224 226 229 237 244 249 252 249 253 256 252 257 269 271 269 267 254 258 267 270 268 269 273 282 287 283 280 287 292 298 288 279 284 293 300 292 263 268 276 287
238 235 230 222 221 227 235 240 244 238 242 252 256 251 250 259 269 267 256 238 251 269 280 284 281 280 288 291 276 269 279 285 289 297 307 314 316 322 319 269 244 257 282
243 236 229 222 223 227 231 236 237 233 238 244 251 255 253 258 265 262 251 237 242 255 270 283 290 295 293 293 284 266 272 285 287 287 297 310 315 310 308 302 270 244 255
240 232 230 226 225 226 225 230 222 219 233 245 253 266 256 256 258 260 260 259 258 243 261 274 287 302 300 297 291 285 291 299 295 293 298 299 301 300 305 309 304 285 264
238 233 232 228 225 219 216 217 216 216 226 240 246 260 265 256 256 258 261 267 267 257 260 275 290 304 311 310 306 308 312 316 302 292 285 289 291 286 291 305 305 306 301
241 238 229 223 227 224 220 212 212 218 225 234 239 248 259 262 254 257 262 270 271 271 272 283 296 307 317 315 314 318 323 291 282 273 289 289 293 295 297 298 302 314 318
243 236 228 223 222 223 226 222 220 223 221 224 230 231 237 253 255 245 232 237 237 244 262 294 324 327 321 326 328 325 327 327 315 310 295 303 306 311 310 312 301 307 298
243 236 226 221 220 220 226 243 242 237 245 241 237 232 238 245 260 254 248 246 250 248 236 254 261 269 275 284 296 305 311 301 296 295 297 296 301 305 307 311 307 299 296
239 237 227 219 218 219 219 222 244 260 254 248 244 242 242 248 252 254 254 251 248 239 231 242 250 254 260 269 273 277 288 293 293 294 296 295 294 299 297 299 303 302 298
241 237 229 221 218 219 218 220 223 229 244 255 251 246 246 249 249 248 248 245 253 243 237 245 251 254 255 260 263 266 276 292 299 297 295 292 289 290 294 287 284 283 292
240 236 228 221 218 219 218 217 220 224 231 240 251 256 247 250 252 250 242 226 230 239 242 248 250 250 252 251 252 252 253 262 276 283 281 280 280 283 288 288 286 289 294
239 239 231 222 218 219 216 216 220 222 228 231 236 240 232 227 238 246 237 228 231 239 242 246 249 245 242 244 244 243 248 252 257 264 269 277 282 280 281 287 291 295 297
237 239 232 224 218 216 215 217 219 220 227 234 239 236 227 224 233 238 238 236 234 235 236 240 244 242 239 237 235 236 240 247 249 252 261 270 275 280 284 287 291 293 294
225 227 222 220 219 217 218 216 218 222 228 235 246 245 239 231 228 236 241 242 239 235 231 232 239 238 232 231 231 232 239 245 246 248 255 263 270 275 278 280 287 291 294
219 222 222 220 217 225 229 221 222 226 230 233 237 240 237 227 229 235 240 242 239 235 232 229 234 242 245 242 233 224 229 237 237 234 240 251 261 268 274 275 278 284 289
213 217 219 219 214 214 218 223 226 228 228 232 234 236 236 234 235 237 238 238 238 238 235 232 234 235 239 246 247 241 239 239 235 233 231 239 250 261 268 274 278 279 284
211 216 217 218 216 217 219 223 226 227 230 232 233 234 234 235 238 240 240 237 234 235 234 236 237 236 237 241 245 247 245 243 241 235 234 235 242 250 260 269 274 279 282
218 221 223 220 218 217 217 222 226 227 230 234 234 233 232 234 237 238 236 234 236 237 237 240 237 237 240 243 243 245 247 246 245 244 238 233 239 251 257 267 271 275 281
Height
1483 1482 1481 1480 1479 1477 1475 1474 1472 1470 1469 1467 1466 1464 1463 1461 1460 1459 1458 1457 1457 1456 1456 1456 1455 1456 1455 1455 1456 1456 1456 1456 1454 1453 1454 1454 1454 1454 1454 1455 1454 1454 1454
1479 1478 1477 1476 1475 1473 1471 1470 1468 1467 1465 1463 1462 1460 1459 1458 1456 1455 1454 1453 1452 1452 1451 1451 1450 1451 1450 1450 1450 1450 1450 1450 1450 1448 1448 1448 1449 1449 1449 1449 1448 1448 1448
1475 1474 1473 1472 1471 1469 1468 1466 1464 1463 1461 1459 1458 1456 1455 1454 1452 1451 1450 1449 1448 1447 1447 1446 1446 1446 1446 1445 1445 1445 1445 1445 1444 1443 1442 1443 1443 1443 1443 1443 1443 1442 1442
1470 1469 1468 1467 1466 1465 1463 1462 1460 1459 1457 1455 1454 1452 1451 1450 1448 1447 1446 1445 1444 1443 1443 1442 1442 1441 1441 1441 1440 1440 1440 1439 1439 1438 1438 1437 1438 1438 1438 1437 1436 1436 1436
1465 1464 1463 1463 1462 1461 1459 1458 1456 1454 1453 1451 1449 1448 1447 1445 1444 1443 1442 1441 1440 1439 1438 1438 1437 1437 1437 1436 1436 1435 1435 1435 1434 1434 1433 1433 1432 1432 1432 1431 1430 1430 1430
1460 1459 1459 1458 1457 1456 1455 1453 1451 1450 1448 1446 1445 1443 1442 1441 1440 1439 1438 1437 1436 1435 1434 1434 1433 1433 1432 1432 1432 1431 1431 1431 1430 1429 1428 1428 1427 1427 1427 1426 1425 1424 1423
1456 1454 1454 1453 1452 1451 1450 1448 1447 1445 1443 1442 1440 1439 1438 1437 1436 1435 1435 1434 1433 1432 1431 1430 1429 1429 1428 1428 1427 1427 1427 1426 1426 1425 1424 1423 1423 1422 1422 1421 1420 1420 1419
1451 1450 1449 1448 1447 1447 1445 1444 1443 1441 1440 1438 1437 1435 1434 1434 1433 1432 1431 1430 1429 1428 1428 1427 1426 1425 1425 1424 1423 1422 1422 1421 1421 1420 1420 1419 1419 1418 1418 1417 1416 1415 1415
1446 1445 1444 1443 1442 1442 1441 1439 1438 1437 1436 1435 1434 1432 1431 1430 1430 1429 1428 1427 1426 1425 1424 1423 1422 1422 1421 1420 1419 1418 1417 1417 1417 1416 1415 1414 1414 1413 1413 1412 1411 1410 1408
1441 1440 1439 1439 1438 1437 1436 1435 1434 1433 1432 1431 1430 1429 1428 1427 1426 1426 1425 1424 1422 1422 1421 1420 1419 1418 1417 1416 1415 1414 1413 1412 1412 1411 1411 1410 1409 1409 1408 1408 1406 1405 1404
1436 1435 1434 1434 1433 1432 1431 1430 1429 1429 1428 1427 1426 1425 1425 1424 1423 1422 1422 1420 1419 1418 1418 1417 1416 1415 1414 1413 1412 1410 1409 1409 1407 1407 1406 1405 1405 1404 1403 1403 1402 1401 1400
1431 1430 1429 1429 1428 1427 1426 1425 1425 1424 1423 1423 1422 1421 1421 1420 1420 1419 1419 1418 1417 1416 1415 1414 1413 1412 1410 1409 1408 1406 1406 1405 1404 1403 1401 1401 1400 1399 1399 1398 1397 1396 1395
1425 1425 1424 1423 1423 1422 1421 1421 1420 1420 1419 1419 1418 1417 1417 1417 1416 1416 1415 1414 1414 1413 1412 1411 1409 1408 1407 1406 1404 1403 1402 1401 1400 1399 1398 1397 1396 1395 1394 1393 1393 1392 1391
1420 1420 1419 1418 1417 1417 1416 1416 1416 1416 1415 1415 1414 1414 1414 1413 1413 1412 1412 1411 1410 1409 1408 1407 1406 1405 1403 1402 1401 1400 1399 1398 1397 1396 1394 1393 1392 1391 1390 1389 1388 1387 1386
1415 1414 1414 1413 1413 1412 1412 1412 1412 1412 1412 1412 1411 1411 1410 1410 1410 1410 1409 1408 1407 1406 1405 1404 1403 1401 1400 1399 1397 1396 1395 1394 1393 1392 1391 1389 1388 1387 1386 1385 1384 1383 1381
1410 1409 1409 1409 1408 1408 1407 1407 1407 1408 1408 1407 1407 1407 1406 1407 1406 1405 1405 1404 1404 1403 1401 1400 1399 1398 1396 1395 1394 1393 1392 1391 1390 1389 1387 1386 1385 1383 1382 1381 1380 1379 1378
1405 1405 1404 1404 1404 1404 1403 1403 1402 1403 1403 1403 1403 1402 1402 1402 1402 1401 1401 1400 1400 1399 1397 1396 1395 1394 1393 1392 1391 1390 1389 1388 1387 1385 1384 1383 1381 1380 1379 1378 1377 1376 1374
1401 1400 1400 1400 1400 1399 1399 1399 1398 1398 1398 1398 1399 1398 1398 1398 1398 1397 1397 1396 1395 1394 1393 1393 1392 1391 1390 1389 1388 1387 1386 1385 1383 1382 1381 1379 1378 1377 1375 1374 1373 1372 1371
1396 1396 1396 1395 1395 1395 1395 1394 1394 1394 1394 1394 1394 1394 1394 1394 1393 1393 1392 1392 1391 1390 1390 1389 1389 1388 1387 1386 1385 1384 1383 1381 1380 1379 1378 1376 1375 1374 1372 1371 1370 1368 1367
1392 1391 1391 1390 1390 1390 1390 1390 1390 1389 1389 1389 1389 1389 1389 1389 1388 1388 1388 1387 1387 1386 1386 1386 1385 1384 1383 1382 1381 1380 1379 1378 1377 1376 1375 1373 1372 1371 1369 1368 1366 1365 1364
1387 1386 1386 1385 1385 1385 1385 1385 1385 1385 1385 1385 1385 1385 1385 1385 1384 1384 1383 1383 1382 1382 1382 1381 1381 1380 1379 1379 1378 1377 1376 1375 1374 1373 1372 1370 1369 1368 1367 1365 1364 1362 1361
1381 1381 1381 1380 1380 1380 1380 1380 1380 1380 1380 1380 1380 1381 1381 1380 1380 1379 1379 1379 1378 1378 1378 1377 1377 1376 1375 1375 1374 1373 1372 1371 1370 1370 1369 1367 1366 1365 1364 1363 1361 1360 1358
1376 1376 1376 1376 1376 1376 1376 1376 1376 1376 1376 1376 1376 1376 1376 1376 1375 1375 1375 1374 1374 1374 1373 1373 1372 1372 1371 1371 1370 1369 1369 1368 1367 1367 1366 1365 1363 1362 1361 1360 1359 1357 1355
1371 1371 1371 1371 1371 1371 1371 1371 1371 1371 1371 1371 1371 1371 1371 1371 1371 1370 1370 1370 1369 1369 1369 1368 1368 1368 1367 1367 1366 1366 1365 1365 1364 1363 1363 1362 1360 1360 1358 1357 1356 1355 1353
1366 1366 1366 1366 1366 1366 1366 1366 1366 1366 1366 1366 1366 1367 1367 1366 1366 1366 1366 1365 1365 1365 1364 1364 1364 1363 1363 1363 1362 1362 1361 1361 1360 1360 1359 1358 1357 1357 1356 1355 1353 1352 1350
1361 1361 1361 1361 1361 1361 1361 1361 1361 1361 1362 1362 1362 1362 1362 1362 1361 1361 1361 1361 1361 1360 1360 1360 1360 1359 1359 1359 1358 1358 1358 1357 1357 1356 1356 1355 1354 1353 1352 1351 1350 1349 1347